User: anonymous   Login
Location: Theydon Bois
(51.6750°N, 0.1050°E)
Time: 13:16:18
(UTC+00:00)
Language:

Cosmos 2082 Rocket - Orbit

View from above orbital plane
View from above orbital plane
View from above satellite
View from above satellite

Ground track
Ground track

The orbit data is extracted from the following two-line orbital elements,

1 20625U 90046B   17346.89579367 -.00000007 +00000-0 +21198-4 0  9992
2 20625 070.9973 134.0639 0015188 203.7426 156.2997 14.14620156422855
Epoch (UTC): 12 December 2017 21:29:56
Eccentricity: 0.0015188
inclination: 70.9973°
perigee height: 832 km
apogee height: 854 km
right ascension of ascending node: 134.0639°
argument of perigee: 203.7426°
revolutions per day: 14.14620156
mean anomaly at epoch: 156.2997°
orbit number at epoch: 42285

The dashed part of the orbit path shows where the satellite is in the earth's shadow,  

DLR